Simultaneous Nadir Overpasses (SNOs) Predictions

Prediction of SNOs between AQUA and GOES-15 Satellite Orbit:

Table of predicted SNOs for the next 14.0 days since TLE Epoch: 10/26/2024
Index Date Time (AQUA) AQUA Lat,Lon GOES-15 Lat,Lon Distance(km) Time Diff (sec)
1 10/26/2024 10:10:03 0.17, 62.62 -0.10, 61.37 142.15 80
2 10/26/2024 22:29:47 0.85, 57.85 0.08, 61.33 396.67 80
3 10/28/2024 22:11:42 -0.08, 62.28 0.09, 61.35 104.20 80
4 10/29/2024 10:31:35 -0.93, 57.46 -0.06, 61.41 449.62 80
5 10/31/2024 10:13:28 0.00, 61.90 -0.07, 61.43 52.41 80
6 10/31/2024 22:33:12 0.96, 57.12 0.05, 61.38 484.57 80
7 11/02/2024 22:15:03 0.03, 61.56 0.07, 61.41 16.90 80
8 11/05/2024 10:16:43 -0.10, 61.20 -0.06, 61.53 36.44 80
9 11/07/2024 09:58:31 0.81, 65.67 -0.06, 61.57 465.61 80
10 11/07/2024 22:18:12 0.20, 60.90 0.04, 61.52 70.63 80
